Weather History for KPHF - January, 2014

Change the Weather History Date:

Wednesday, January 1, 2014

  Actual Average Record
Temperature  
Mean Temperature 42 °F -  
Max Temperature 53 °F 52 °F 78 °F (1952)
Min Temperature 32 °F 35 °F 18 °F (1977)
Degree Days  
Heating Degree Days 22    
Moisture  
Dew Point 31 °F    
Average Humidity 72    
Maximum Humidity 85    
Minimum Humidity 52    
Precipitation  
Precipitation 0.00 in - - ()
Sea Level Pressure  
Sea Level Pressure 30.33 in    
Wind  
Wind Speed 2 mph (SSE)    
Max Wind Speed 10 mph    
Max Gust Speed -    
Visibility 10 miles    
Events Rain    
Averages and records for this station are not official NWS values.
T = Trace of Precipitation, MM = Missing Value Source: NWS Daily Summary

Daily Weather History Graph

Daily Weather History Graph

Search for Another Location

Airport or City:

Trip Planner

Search our weather history database for the weather conditions in past years. The results will help you decide how hot, cold, wet, or windy it might be!

Date:

Astronomy

Jan. 01, 2014 Rise Set
Actual Time 7:19 AM EST 4:59 PM EST
Civil Twilight 6:50 AM EST 5:28 PM EST
Nautical Twilight 6:18 AM EST 6:01 PM EST
Astronomical Twilight 5:46 AM EST 6:32 PM EST
Moon 7:09 AM EST (1/1) 5:40 PM EST (1/1)
Length of Visible Light 10h 38m
Length of Day
9h 40m
New Moon, 0% of the Moon is Illuminated
Jan 1
New Moon
Jan 7
First Quarter
Jan 15
Full
Jan 24
Last Quarter
Jan 30
New

Hourly Weather History & Observations

Time (EST) Temp. Windchill Dew Point Humidity Pressure Visibility Wind Dir Wind Speed Gust Speed Precip Events Conditions
12:54 AM 33.1 °F - 26.1 °F 75% 30.35 in 10.0 mi Calm Calm - N/A   Clear
1:54 AM 32.0 °F - 27.0 °F 82% 30.37 in 10.0 mi Calm Calm - N/A   Clear
2:54 AM 32.0 °F - 27.0 °F 82% 30.38 in 10.0 mi Calm Calm - N/A   Clear
3:54 AM 32.0 °F 28.7 °F 28.0 °F 85% 30.38 in 10.0 mi ENE 3.5 mph - N/A   Clear
4:54 AM 32.0 °F - 28.0 °F 85% 30.39 in 10.0 mi Calm Calm - N/A   Clear
5:54 AM 32.0 °F - 27.0 °F 82% 30.40 in 10.0 mi Calm Calm - N/A   Clear
6:54 AM 32.0 °F - 26.1 °F 79% 30.41 in 10.0 mi Calm Calm - N/A   Clear
7:54 AM 33.1 °F 28.7 °F 26.1 °F 75% 30.42 in 10.0 mi NE 4.6 mph - N/A   Clear
8:54 AM 35.1 °F - 27.0 °F 72% 30.43 in 10.0 mi Calm Calm - N/A   Clear
9:54 AM 43.0 °F 40.3 °F 33.1 °F 68% 30.44 in 10.0 mi East 4.6 mph - N/A   Clear
10:54 AM 48.0 °F - 34.0 °F 58% 30.43 in 10.0 mi SE 9.2 mph - N/A   Clear
11:54 AM 50.0 °F - 35.1 °F 57% 30.38 in 10.0 mi SE 9.2 mph - N/A   Clear
12:54 PM 52.0 °F - 35.1 °F 53% 30.35 in 10.0 mi SSE 10.4 mph - N/A   Clear
1:54 PM 53.1 °F - 36.0 °F 52% 30.33 in 10.0 mi SSW 10.4 mph - N/A   Clear
2:54 PM 53.1 °F - 37.0 °F 55% 30.31 in 10.0 mi South 6.9 mph - N/A   Clear
3:54 PM 51.1 °F - 36.0 °F 56% 30.30 in 10.0 mi South 6.9 mph - N/A   Clear
4:54 PM 48.9 °F - 34.0 °F 56% 30.27 in 10.0 mi South 3.5 mph - N/A   Clear
5:54 PM 42.1 °F - 35.1 °F 76% 30.26 in 10.0 mi Calm Calm - 0.00 in Rain Light Rain
6:54 PM 39.0 °F - 34.0 °F 82% 30.26 in 10.0 mi Calm Calm - 0.00 in   Clear
7:54 PM 37.9 °F - 33.1 °F 83% 30.25 in 10.0 mi Calm Calm - 0.00 in   Clear
8:54 PM 36.0 °F - 30.9 °F 82% 30.23 in 8.0 mi Calm Calm - N/A   Clear
10:54 PM 35.1 °F - 30.0 °F 82% 30.18 in 7.0 mi Calm Calm - N/A   Clear
11:54 PM 36.0 °F - 30.9 °F 82% 30.17 in 8.0 mi Calm Calm - N/A   Clear